Simultaneous Nadir Overpasses (SNOs) Predictions

Prediction of SNOs between GOES-14 and NOAA-20 Satellite Orbit:

Table of predicted SNOs for the next 14.0 days since TLE Epoch: 1/16/2021
Index Date Time (GOES-14) GOES-14 Lat,Lon NOAA-20 Lat,Lon Distance(km) Time Diff (sec)
1 01/16/2021 20:29:43 0.07,-104.08 -0.30,-105.86 201.64 80
2 01/17/2021 20:10:58 0.07,-104.09 0.66,-101.31 315.13 80
3 01/19/2021 08:30:07 -0.07,-104.37 0.42,-106.60 254.50 80
4 01/20/2021 08:14:03 -0.07,-104.37 -0.60,-102.07 262.46 80
5 01/21/2021 20:35:58 0.07,-104.10 -0.66,-107.36 371.36 80
6 01/22/2021 20:14:33 0.06,-104.10 0.36,-102.83 145.35 80
7 01/24/2021 08:36:22 -0.06,-104.38 0.78,-108.10 424.69 80
8 01/25/2021 08:20:17 -0.06,-104.38 -0.24,-103.57 92.16 80
9 01/27/2021 20:23:28 0.05,-104.11 0.01,-104.33 25.12 80
10 01/28/2021 20:02:04 0.05,-104.10 1.04, -99.80 491.28 80
